STARLINK-1402 (45685 NORAD) Tracking and Keplerian Element Data

This shows tracking and keplerian element data for the satellite.

Feedback or suggestion? Click here.




ElementValue
Catalog45685
NameSTARLINK-1402
Epoch Orbit1078
Epoch Day219.25001157
Epoch Year2020
RAAN221.7328
Inclination52.9967
Eccentricity0.0001355
Argument of Perigee71.8369
Mean Anonmoly43.8391
Mean Motion15.27484878
Decay Rate-0.01028356
L11 45685U 20035AE 20219.25001157 -.01028356 00000-0 -41039-1 0 9998
L22 45685 52.9967 221.7328 0001355 71.8369 43.8391 15.27484878 10789

Live tracking and technical data element details for STARLINK-1402 (NORAD 45685). STARLINK-1402 can be tracked NOW for your location showing map with azimuth and elevation plus other details from your city location.

Track the satellite on the map from your city or location and see movement details for azimuth, elevation, latitude, longitude, range, height, and movement on the map or in text.







IsCatalogInMostPopularTable: catalog: 45685, numindb: 11
Update: records affected: 1



GetName: 45685 STARLINK-1402

Hit Count: updated at: Sat, 08 Aug 2020 01:03:38 GMT